Weather in Vani

Georgia     42°05′03″N   42°31′01″E
temp.,
°C
wind,
m/s
gust,
m/s
humid.,
%
clouds,
%
prec.,
mm/h
press.,
hPa
HPBL,
m
8 march, mon
mon801:00−1ene1196100 0.1 1023160
04:00−2e008897 0.1 102122
07:00−1nnw1197100 0.6 101999
10:00−1nw2298100 2.8 1019159
13:00−1nw2297100 0.7 1017220
16:000nw2297100 1.7 1016242
19:00−1nw2299100 0.3 1019160
22:00−1ne0098100 0.7 102179
9 march, tue
tue901:00−3se228492 0.0 102067
04:00−2sse227170 0.0 102023
07:00−2sse1275100 0.1 102123
10:00+2n107083 0.1 1020298
13:00+5nnw22710 0.1 1018630
16:00+5wnw36680 1.1 10181194
19:00+1wsw228267 0.8 102145
22:00−1ssw228259 0.9 102429
10 march, wed
wed1001:00−1s128061 0.1 102534
04:00−2sse227770 0.1 102524
07:00−1sse1277100 0.1 102636
10:00+2nne1174100 0.1 1025306
13:00+5nne217069 0.3 1022641
16:00+5nne216754 0.5 1020716
19:00+3e128085 0.0 102023
22:00+3sse336593 0.0 101938
11 march, thu
thu1101:00+3se2271100 0.0 101842
04:00+1e2384100 0.1 1016168
07:00+1e2390100 0.2 1014196
10:00+2ene2296100 1.2 1012151
13:00+2nne1297100 2.5 1010132
16:000w2299100 10.6 1009133
19:00−1w2599100 7.5 1013242
22:00−1wnw4799100 12.6 1016524
12 march, fri
fri1201:00−3w4897100 2.1 1018613
04:00−3w269795 2.9 1019496
07:00−6s228795 0.3 102164
10:00−1nne118470 0.3 1022511
13:00+1w4108196 0.3 10221277
16:000w598696 0.5 1023863
19:00−3wsw239322 0.1 102665
22:00−6s337512 0.1 102929